Simultaneous Nadir Overpasses (SNOs) Predictions

Prediction of SNOs between AQUA and METOP-C Satellite Orbit:

Table of predicted SNOs for the next 14.0 days since TLE Epoch: 12/24/2022
Index Date (AQUA) Time (AQUA) Lat,Lon (AQUA) SZA (AQUA ) Date (METOP-C) Time (METOP-C) Lat,Lon (METOP-C) SZA (METOP-C ) Distance(km) Time Diff (sec)
1 12/25/2022 12:43:53 -73.83, 164.93 82.84 12/25/2022 12:42:43 -73.77, 163.52 82.86 44.30 70
2 12/25/2022 13:33:26 74.17, -28.21 97.52 12/25/2022 13:33:16 74.17, -28.19 97.52 0.65 10
3 12/25/2022 14:22:52 -74.22, 139.32 82.43 12/25/2022 14:23:55 -74.24, 139.33 82.42 2.71 63
4 12/28/2022 07:27:34 73.91, 63.84 97.15 12/28/2022 07:26:23 73.84, 62.75 97.11 34.71 71
5 12/28/2022 08:17:04 -74.17,-129.09 82.59 12/28/2022 08:16:57 -74.16,-129.12 82.59 0.77 7
6 12/28/2022 09:06:32 74.26, 38.34 97.51 12/28/2022 09:07:36 74.26, 38.46 97.50 3.72 64
7 12/31/2022 02:11:13 -74.05, -37.35 82.87 12/31/2022 02:10:00 -73.98, -37.82 82.93 16.49 73
8 12/31/2022 03:00:42 74.20, 129.95 97.28 12/31/2022 03:00:37 74.17, 129.98 97.26 2.97 5
9 12/31/2022 03:50:08 -74.24, -62.51 82.68 12/31/2022 03:51:16 -74.25, -62.48 82.67 1.47 68
10 01/02/2023 20:54:52 74.12,-138.40 96.98 01/02/2023 20:53:39 74.07,-138.51 96.95 6.41 73
11 01/02/2023 21:44:18 -74.16, 29.15 82.98 01/02/2023 21:44:18 -74.16, 29.03 82.98 3.50 0
12 01/02/2023 22:33:46 74.26,-163.44 97.12 01/02/2023 22:34:57 74.25,-163.41 97.10 1.75 71
13 01/05/2023 15:38:28 -74.13, 120.71 83.30 01/05/2023 15:37:19 -74.10, 120.66 83.31 3.05 69
14 01/05/2023 16:27:55 74.17, -71.76 96.76 01/05/2023 16:27:58 74.19, -71.80 96.77 2.12 3



Historial Predications of SNOs between AQUA and METOP-C
